Regional Weather Roundup
Issued by NWS

Home | Current Version | Previous Version | Text Only | Print | Product List | Glossary Off
Versions: 1 2 3 4 5 6 7 8 9 10 11 12 13 14 15 16 17 18 19 20 21 22 23 24 25 26 27 28 29 30 31 32 33 34 35 36 37 38 39 40 41 42 43 44 45 46 47 48 49 50

000
ASUS43 KIND 241509
RWRIN

WEATHER ROUNDUP FOR INDIANA
NATIONAL WEATHER SERVICE INDIANAPOLIS IN
1000 AM EST TUE JAN 24 2017

NOTE: "FAIR" INDICATES FEW OR NO CLOUDS BELOW 12,000 FEET WITH NO
SIGNIFICANT WEATHER AND/OR OBSTRUCTIONS TO VISIBILITY.

* - STATION DOES NOT REPORT WEATHER SUCH AS PRECIPITATION OR FOG.

+ - STATION NOT QUALITY CONTROLLED BY THE NATIONAL WEATHER SERVICE.
    USE DATA WITH CAUTION...ESPECIALLY DEWPOINT AND RELATIVE
    HUMIDITY OBSERVATIONS.

INZ001>003-010>013-019-020-241600-
NORTHWEST INDIANA

CITY           SKY/WX    TMP DP  RH WIND       PRES   REMARKS
GARY /AIRPORT/ CLOUDY    39  32  75 W9        29.90R
KNOX *+        CLOUDY    37  21  52 NW6       29.88S
LA PORTE +     CLOUDY    37  34  90 NW8       29.88S
MICHIGAN CITY+ CLOUDY    36  36 100 NW8       29.89S
MONTICELLO +   CLOUDY    38  34  84 NW6       29.88S
RENSSELAER +   CLOUDY    37  36  93 W6        29.89S
VALPARAISO     CLOUDY    39  34  82 NW7       29.88S

$$

LMZ046-743>745-241600-
SOUTHERN LAKE MICHIGAN

STATION/POSITION TIME  TEMP    WIND        PRES    WAVE
                       AIR SEA DIR/SP/G            HT
                 (UTC) (F)     (DEG/KT/KT) (MB)    (FT)
BURNS HARBOR     1440   35     320/  4/  6 1012.9S

$$

INZ004-005-014>016-021>024-241600-
NORTH CENTRAL INDIANA

CITY           SKY/WX    TMP DP  RH WIND       PRES   REMARKS
ELKHART        CLOUDY    39  36  87 NW9       29.86R
GOSHEN         CLOUDY    39  34  82 W9        29.85R
LOGANSPORT +   CLOUDY    37  32  81 NW7       29.88S
PERU/GRISSOM   CLOUDY    39  36  87 NW9       29.86R
ROCHESTER +    CLOUDY    41  36  81 NW9       29.87F
SOUTH BEND     CLOUDY    37  35  92 W8        29.88R
WARSAW +       CLOUDY    37  32  81 W8        29.86S

$$

INZ006>009-017-018-025>027-241600-
NORTHEAST INDIANA

CITY           SKY/WX    TMP DP  RH WIND       PRES   REMARKS
ANGOLA *+      CLOUDY    37  28  70 NW9       29.82R
AUBURN +       CLOUDY    37  36  93 W12       29.84R FOG
FORT WAYNE     CLOUDY    40  35  83 W10       29.85R
HUNTINGTON +   CLOUDY    38  35  87 NW9       29.85S
KENDALLVILLE + CLOUDY    38  36  94 NW6       29.83R

$$

INZ028-029-035-036-043>045-051>053-241600-
WEST CENTRAL INDIANA

CITY           SKY/WX    TMP DP  RH WIND       PRES   REMARKS
CRAWFORDSVL +  CLOUDY    37  34  89 NW3       29.90R
GREENCASTLE +  CLOUDY    37  32  81 NW5       29.90S
LAFAYETTE      CLOUDY    38  35  89 NW7       29.89R
TERRE HAUTE    CLOUDY    40  33  76 NW6       29.90F

$$

INZ030>032-037>040-046>048-054>057-064-065-241600-
CENTRAL INDIANA

CITY           SKY/WX    TMP DP  RH WIND       PRES   REMARKS
ANDERSON       CLOUDY    39  36  87 NW12      29.87
CP ATTERBURY + CLOUDY    41  34  75 NW6       29.90R
COLUMBUS       CLOUDY    39  36  87 NW7       29.90R
FRANKFORT +    CLOUDY    41  36  83 N7        29.90R
GREENWOOD *+   CLOUDY    40  35  83 NW6       29.89R
INDIANAPOLIS   CLOUDY    40  32  73 NW9       29.89R
-EAGLE CREEK   CLOUDY    40  32  73 NW8       29.88R
KOKOMO +       CLOUDY    39  34  82 NW13      29.87S
MARION +       CLOUDY    37  34  87 NW12      29.86S FOG
MT COMFORT *+  CLOUDY    37  34  87 NW8       29.88R
SHELBYVILLE    CLOUDY    40  33  76 NW12      29.88R
ZIONSVILLE +   CLOUDY    37  33  84 NW6       29.89R

$$

INZ033-034-041-042-049-050-058-059-241600-
EAST CENTRAL INDIANA

CITY           SKY/WX    TMP DP  RH WIND       PRES   REMARKS
MUNCIE         CLOUDY    40  36  86 NW10      29.85S

$$

INZ060-061-067>069-081>083-085>088-241600-
SOUTHWEST INDIANA

CITY           SKY/WX    TMP DP  RH WIND       PRES   REMARKS
EVANSVILLE     CLOUDY    42  33  70 CALM      29.95R
HUNTINGBURG *+ CLOUDY    41  34  75 W6        29.94R
WASHINGTON +   CLOUDY    40  34  79 N5        29.92R

$$

INZ062-063-066-070>080-084-089>092-241600-
SOUTH CENTRAL AND SOUTHEAST INDIANA

CITY           SKY/WX    TMP DP  RH WIND       PRES   REMARKS
BEDFORD +      CLOUDY    41  32  70 CALM      29.90R
BLOOMINGTON    CLOUDY    40  32  73 NW5       29.90R
MADISON *+     CLOUDY    41  36  81 W6        29.91R
NORTH VERNON + CLOUDY   N/A N/A N/A W8        29.90R
SEYMOUR +      CLOUDY    43  34  70 NW7       29.90R

$$




USA.gov is the U.S. government's official web portal to all federal, state and local government web resources and services.